TimeAKST,TemperatureF,Dew PointF,Humidity,Sea Level PressureIn,VisibilityMPH,Wind Direction,Wind SpeedMPH,Gust SpeedMPH,PrecipitationIn,Events,Conditions,WindDirDegrees,DateUTC
12:51 AM,23.0,23.0,100,30.27,3.0,Calm,Calm,-,N/A,,Overcast,0,2013-12-09 09:51:00
12:53 AM,23.0,23.0,100,30.27,2.5,Calm,Calm,-,N/A,,Overcast,0,2013-12-09 09:53:00
1:51 AM,21.2,21.2,100,30.27,1.5,Calm,Calm,-,N/A,,Overcast,0,2013-12-09 10:51:00
1:53 AM,21.9,21.9,100,30.28,1.5,Calm,Calm,-,N/A,,Overcast,0,2013-12-09 10:53:00
2:38 AM,23.0,23.0,100,30.27,-9999.0,North,5.8,-,N/A,,Mist,360,2013-12-09 11:38:00
2:47 AM,23.0,23.0,100,30.28,0.5,North,5.8,-,N/A,Fog,Light Freezing Fog,350,2013-12-09 11:47:00
2:48 AM,23.0,23.0,100,30.28,0.5,North,5.8,-,N/A,Fog,Light Freezing Fog,350,2013-12-09 11:48:00
3:34 AM,21.2,21.2,100,30.28,-9999.0,NNW,4.6,-,N/A,,Mist,340,2013-12-09 12:34:00
3:53 AM,21.9,21.9,100,30.28,1.5,Calm,Calm,-,N/A,,Overcast,0,2013-12-09 12:53:00
4:33 AM,21.2,21.2,100,30.28,0.8,South,3.5,-,N/A,,Mist,170,2013-12-09 13:33:00
4:51 AM,21.2,21.2,100,30.27,0.5,Calm,Calm,-,N/A,Fog,Light Freezing Fog,0,2013-12-09 13:51:00
4:53 AM,21.9,21.9,100,30.27,0.5,Calm,Calm,-,N/A,Fog,Light Freezing Fog,0,2013-12-09 13:53:00
5:53 AM,19.9,19.9,100,30.28,0.2,Calm,Calm,-,N/A,Fog,Light Freezing Fog,0,2013-12-09 14:53:00
6:25 AM,19.4,19.4,100,30.28,1.0,Calm,Calm,-,N/A,,Mist,0,2013-12-09 15:25:00
6:33 AM,19.4,19.4,100,30.28,3.0,SW,3.5,-,N/A,,Overcast,220,2013-12-09 15:33:00
6:51 AM,19.4,17.6,93,30.28,2.0,Calm,Calm,-,N/A,,Overcast,0,2013-12-09 15:51:00
6:53 AM,19.0,18.0,96,30.28,1.8,Calm,Calm,-,N/A,,Overcast,0,2013-12-09 15:53:00
7:24 AM,19.4,17.6,93,30.29,3.0,Calm,Calm,-,N/A,,Mostly Cloudy,0,2013-12-09 16:24:00
7:39 AM,17.6,15.8,93,30.28,9.0,NW,5.8,-,N/A,,Scattered Clouds,320,2013-12-09 16:39:00
7:53 AM,16.0,15.1,96,30.28,10.0,Calm,Calm,-,N/A,,Partly Cloudy,0,2013-12-09 16:53:00
8:53 AM,17.1,15.1,92,30.27,10.0,WNW,4.6,-,N/A,,Partly Cloudy,300,2013-12-09 17:53:00
9:53 AM,17.1,15.1,92,30.27,10.0,Calm,Calm,-,N/A,,Partly Cloudy,0,2013-12-09 18:53:00
10:53 AM,18.0,17.1,96,30.27,10.0,Calm,Calm,-,N/A,,Partly Cloudy,0,2013-12-09 19:53:00
11:53 AM,18.0,16.0,92,30.29,10.0,Calm,Calm,-,N/A,,Partly Cloudy,0,2013-12-09 20:53:00
12:53 PM,18.0,16.0,92,30.29,10.0,NNE,4.6,-,N/A,,Partly Cloudy,30,2013-12-09 21:53:00
1:53 PM,17.1,16.0,96,30.30,10.0,NNE,3.5,-,N/A,,Partly Cloudy,20,2013-12-09 22:53:00
2:53 PM,18.0,17.1,96,30.29,10.0,Calm,Calm,-,N/A,,Scattered Clouds,0,2013-12-09 23:53:00
3:53 PM,17.1,15.1,92,30.29,10.0,Calm,Calm,-,N/A,,Scattered Clouds,0,2013-12-10 00:53:00
4:53 PM,18.0,17.1,96,30.28,10.0,North,4.6,-,N/A,,Scattered Clouds,10,2013-12-10 01:53:00
5:53 PM,19.9,18.0,92,30.29,10.0,Calm,Calm,-,N/A,,Scattered Clouds,0,2013-12-10 02:53:00
6:53 PM,21.9,19.0,89,30.31,10.0,ENE,3.5,-,N/A,,Scattered Clouds,70,2013-12-10 03:53:00
7:53 PM,17.1,16.0,96,30.30,10.0,Calm,Calm,-,N/A,,Scattered Clouds,0,2013-12-10 04:53:00
8:53 PM,17.1,15.1,92,30.31,10.0,Calm,Calm,-,N/A,,Scattered Clouds,0,2013-12-10 05:53:00
9:53 PM,21.0,19.0,92,30.32,10.0,NNW,8.1,-,N/A,,Scattered Clouds,340,2013-12-10 06:53:00
10:53 PM,19.9,18.0,92,30.32,10.0,North,3.5,-,N/A,,Scattered Clouds,10,2013-12-10 07:53:00
11:53 PM,19.0,17.1,92,30.33,10.0,NE,3.5,-,N/A,,Scattered Clouds,50,2013-12-10 08:53:00